This demonstration page uses our WeatherBlox Daily Observations layout. Learn more.

Left ArrowRight Arrow

41.86663, -103.66717

Hourly Observations for April 12, 2018

Temp ( °F °C ) Dew Point ( °F °C ) Humidity (%) Winds ( mph kmh ) Pressure ( in mb ) Visibility ( mi km ) Precip ( " mm )
12:53 am 00:53 Clear 43 6.1 37 2.8 80 80 E 8 13 29.69 1005 10 16 N/A
1:53 am 01:53 Clear 42 5.6 37 2.8 82 82 ENE 8 13 29.67 1005 10 16 N/A
2:53 am 02:53 Clear 42 5.6 38 3.3 85 85 SE 7 11 29.62 1003 10 16 N/A
3:53 am 03:53 Clear 41 5 37 2.8 86 86 E 8 13 29.59 1002 10 16 N/A
4:53 am 04:53 Clear 40 4.4 36 2.2 86 86 E 8 13 29.57 1001 10 16 N/A
5:53 am 05:53 Clear 39 3.9 36 2.2 89 89 ENE 8 13 29.57 1001 10 16 N/A
6:53 am 06:53 Sunny 40 4.4 37 2.8 89 89 ENE 9 15 29.58 1002 10 16 N/A
7:53 am 07:53 Sunny 44 6.7 39 3.9 83 83 E 7 11 29.59 1002 10 16 N/A
8:53 am 08:53 Sunny 48 8.9 39 3.9 71 71 SE 15 24 29.59 1002 10 16 N/A
9:53 am 09:53 Sunny 52 11.1 40 4.4 64 64 ESE 16 26 29.56 1001 10 16 N/A
10:53 am 10:53 Sunny 55 12.8 40 4.4 57 57 SE 20 31 29.53 1000 10 16 N/A
11:53 am 11:53 Sunny 55 12.8 40 4.4 57 57 SE 21 33 29.52 1000 10 16 N/A
12:53 pm 12:53 Sunny 58 14.4 40 4.4 51 51 ESE 23 37 29.46 998 10 16 N/A
1:53 pm 13:53 Sunny 62 16.7 41 5 46 46 ESE 25 41 29.39 995 10 16 N/A
2:53 pm 14:53 Sunny 62 16.7 41 5 46 46 ESE 23 37 29.36 994 10 16 N/A
3:53 pm 15:53 Sunny 61 16.1 42 5.6 50 50 ESE 26 43 29.32 993 10 16 N/A
4:53 pm 16:53 Sunny 60 15.6 41 5 50 50 E 15 24 29.37 995 10 16 N/A
5:53 pm 17:53 Sunny 57 13.9 40 4.4 53 53 E 22 35 29.37 995 10 16 N/A
6:53 pm 18:53 Sunny 56 13.3 41 5 57 57 E 16 26 29.38 995 10 16 N/A
7:53 pm 19:53 Mostly Cloudy 54 12.2 41 5 62 62 E 14 22 29.41 996 10 16 N/A
8:53 pm 20:53 Partly Cloudy 52 11.1 42 5.6 69 69 ESE 8 13 29.43 997 10 16 N/A
9:53 pm 21:53 Cloudy with Light Rain 52 11.1 44 6.7 75 75 NNE 3 6 29.46 998 10 16 N/A
10:53 pm 22:53 Cloudy with Light Rain 48 8.9 46 7.8 93 93 W 15 24 29.49 999 4 6 0.10 2.54
10:59 pm 22:59 Cloudy with Heavy Rain 46 7.8 44 6.7 93 93 W 17 28 29.53 1000 3 4 0.04 1.02
11:07 pm 23:07 Cloudy with Rain 46 7.8 45 7.2 96 96 WNW 21 33 29.53 1000 3 5 0.08 2.03
11:33 pm 23:33 Cloudy with Rain 46 7.8 46 7.8 100 100 WNW 16 26 29.59 1002 4 6 0.15 3.81
11:51 pm 23:51 Cloudy with Rain 45 7 45 7 100 100 NW 24 39 29.59 1002 3 4 0.20 5.08
11:52 pm 23:52 Cloudy with Rain 45 7.2 45 7.2 100 100 WNW 25 41 29.55 1001 3 4 0.20 5.08

Powered by AerisWeather